Location: Hermaringen
(48.5952°N, 10.2585°E)
Time: 13:55:03
(UTC+00:00)

A-11 Canister half - Pass Details

Date: 25 February 2026
Orbit: 1513 x 1687 km, 47.2° (Epoch: 11 March)

Event Time Altitude Azimuth Distance (km) Brightness Sun altitude
Rises 19:49:09 0° 251° (WSW) 4,937 12.4 -28.9°
Reaches altitude 10° 19:52:20 10° 250° (WSW) 3,950 11.7 -29.4°
Maximum altitude 20:02:30 78° 167° (SSE) 1,707 9.0 -31.0°
Enters shadow 20:04:34 61° 100° (E) 1,852 9.0 -31.3°
Drops below altitude 10° 20:12:29 10° 83° (E) 3,880 - -32.5°
Sets 20:15:34 0° 82° (E) 4,846 - -32.9°
